Regional Weather Roundup
Issued by NWS

Home | Current Version | Previous Version | Graphics & Text | Print | Product List | Glossary On
Versions: 1 2 3 4 5 6 7 8 9 10 11 12 13 14 15 16 17 18 19 20 21 22 23 24 25 26 27 28 29 30 31 32 33 34 35 36 37 38 39 40 41 42 43 44 45 46 47 48 49 50
000
ASUS43 KMPX 030110
RWRMN
WEATHER ROUNDUP FOR MINNESOTA
NATIONAL WEATHER SERVICE TWIN CITIES/CHANHASSEN MN
800 PM CDT THU JUL 02 2015


NOTE: "FAIR" INDICATES FEW OR NO CLOUDS BELOW 12,000 FEET WITH NO
SIGNIFICANT WEATHER AND/OR OBSTRUCTIONS TO VISIBILITY. N/A MEANS
CURRENT SKY AND/OR WEATHER CONDITIONS ARE NOT AVAILABLE.

MNZ060>063-068>070-030200-
   Twin Cities Metro

CITY           SKY/WX    TMP DP  RH WIND       PRES   REMARKS
TWIN CITIES    MOCLDY    74  52  46 SW6       29.97F
ST PAUL        PTCLDY    71  56  58 S6        29.97S
CRYSTAL        PTCLDY    74  53  48 SW7       29.96S
LAKEVILLE      PTCLDY    70  61  73 CALM      29.98S
EDEN PRAIRIE   PTCLDY    72  56  57 SW5       29.96F
SOUTH ST PAUL  PTCLDY    73  54  49 S3        29.97S
LAKE ELMO      FAIR      72  59  64 CALM      29.98F
$$
MNZ001>005-007-008-013>017-022>024-027-028-030200-
   Northwest Minnesota

CITY           SKY/WX    TMP DP  RH WIND       PRES   REMARKS
BEMIDJI        MOSUNNY   70  56  62 SW7       29.93F
HALLOCK        MOSUNNY   73  66  78 SW5       29.86S
ROSEAU         MOSUNNY   72  64  78 SW8       29.88S
WARROAD        MOSUNNY   72  63  73 SW7       29.88S
THIEF RVR FALL PTSUNNY   73  57  56 S10       29.90F
CROOKSTON      PTSUNNY   73  61  64 S9        29.90F
FOSSTON        MOSUNNY   72  55  56 SW7       29.94S
DETROIT LAKES  MOSUNNY   70  52  52 S6        29.97R
MOORHEAD       PTSUNNY   73  55  53 S7        29.94S
PARK RAPIDS    SUNNY     70  56  61 SW7       29.96S
MAHNOMEN       FAIR      70  56  61 SW9       29.94S
$$
MNZ006-009>011-018-025>026-030200-
   North Central Minnesota

CITY           SKY/WX    TMP DP  RH WIND       PRES   REMARKS
BAUDETTE       PTSUNNY   71  56  58 SW5       29.88F
FLAG ISLAND    PTSUNNY   72  63  73 S3        29.85S
INTL FALLS     PTSUNNY   71  57  61 SW8       29.89F
WASKISH        PTSUNNY   72  59  64 S3        29.91F
BIG FORK       MOSUNNY   66  61  82 S3        29.93F
LONGVILLE      MOSUNNY   72  55  56 SW7       29.95F
GRAND RAPIDS   MOCLDY    70  55  60 S3        29.96R
CRANE LAKE     MOCLDY    70  55  60 SW3       29.93R
ORR            MOCLDY    70  55  60 CALM      29.91S
COOK           PTCLDY    72  59  64 W5        29.94S
WALKER         FAIR      70  57  62 SW5       29.95R
$$
MNZ012-019>021-037-030200-
   Northeast Minnesota

CITY           SKY/WX    TMP DP  RH WIND       PRES   REMARKS
DULUTH         MOCLDY    72  57  59 SW8       29.95S
ELY            PTCLDY    72  57  60 W7        29.93S
HIBBING        PTCLDY    71  58  63 SW3       29.94S
DULUTH HARBOR  CLEAR     75  61  60 SW9       29.94R
TWO HARBORS    PTCLDY    73  63  68 SW7       29.92S
SILVER BAY     PTCLDY    72  59  64 S5        29.92S
GRAND MARAIS     N/A     57  53  86 CALM      29.90S
G MARAIS ARPRT MOCLDY    64  55  72 CALM      29.95S
$$
MNZ029>031-032-039>041-046>048-054>057-064-030200-
   West Central Minnesota

CITY           SKY/WX    TMP DP  RH WIND       PRES   REMARKS
FERGUS FALLS   MOSUNNY   72  54  53 S7        29.95S
WHEATON        MOSUNNY   68  52  56 S6        29.97F
MORRIS         SUNNY     72  54  53 S5        29.96S
ALEXANDRIA     SUNNY     70  50  49 S6        29.99S
ELBOW LAKE     FAIR      69  55  61 S6        29.96F
WADENA         SUNNY     70  54  56 SW3       29.97S
GLENWOOD       SUNNY     68  55  64 S3        29.99S
APPLETON       SUNNY     72  52  49 CALM      29.96F
BENSON         SUNNY     70  52  52 CALM      29.97S
ORTONVILLE     MOSUNNY   70  54  56 CALM      29.97S
MADISON        SUNNY     70  54  56 S3        29.97S
WILLMAR        FAIR      72  55  56 CALM      29.99S
$$
MNZ033>034-036-042>043-049>051-058-059-030200-
   Central Minnesota

CITY           SKY/WX    TMP DP  RH WIND       PRES   REMARKS
ST CLOUD       CLEAR     71  56  58 S5        29.97S
SAUK CENTRE    FAIR      68  56  66 SW5       29.97F
PAYNESVILLE    SUNNY     67  54  61 SE3       29.97F
AITKIN         CLEAR     72  57  60 SW5       29.95S
PINE RIVER       N/A     72  57  60 SW3       29.99S
BRAINERD       SUNNY     73  53  49 SW8       29.97R
STAPLES        SUNNY     70  54  56 SW3       29.97S
LONG PRAIRIE   FAIR      68  55  64 S3        29.98S
LITTLE FALLS   SUNNY     72  52  49 CALM      29.97S
LITCHFIELD     PTCLDY    72  54  53 CALM      29.98S
BUFFALO        CLEAR     71  55  55 SW3       29.99S
MAPLE LAKE     CLEAR     72  59  63 CALM      29.99S
$$
MNZ037-044-045-052-053-030200-
   East Central Minnesota

CITY           SKY/WX    TMP DP  RH WIND       PRES   REMARKS
PRINCETON      CLEAR     73  57  56 CALM      29.97S
MORA           CLEAR     70  52  52 S3        29.98S
CAMBRIDGE      CLEAR     75  57  53 CALM      29.95S
RUSH CITY      CLEAR     71  56  59 CALM      29.96F
MOOSE LAKE     CLEAR     68  59  73 SW3       29.95R
HINCKLEY       FAIR      72  57  60 SW3       29.96S
CLOQUET        CLEAR     72  55  56 SW5       29.96S
MCGREGOR       CLEAR     72  55  56 SW3       29.96S
$$
MNZ071>073-080-081-089-090-097-098-030200-
   Southwest Minnesota

CITY           SKY/WX    TMP DP  RH WIND       PRES   REMARKS
MONTEVIDEO     SUNNY     72  54  53 S3        29.98S
GRANITE FALLS  MOSUNNY   70  54  56 CALM      29.98F HAZE
CANBY          SUNNY     69  56  63 CALM      29.98S
MARSHALL       MOSUNNY   72  50  46 SE6       29.97S
REDWOOD FALLS  PTCLDY    73  53  49 CALM      29.97F
OLIVIA         PTCLDY    70  50  49 S3        29.97F
PIPESTONE      PTSUNNY   66  54  63 S3        29.99S
WINDOM         MOCLDY    72  48  43 CALM      29.99S
WORTHINGTON    MOCLDY    66  48  52 SE5       29.99F
JACKSON        MOCLDY    68  54  60 S5        30.00S
TRACY          PTSUNNY   71  55  57 CALM      29.99S
SLAYTON        PTSUNNY   68  49  49 CALM      30.00S
$$
MNZ065>067-074>077-082>085-091>093-030200-
   South Central Minnesota

CITY           SKY/WX    TMP DP  RH WIND       PRES   REMARKS
MANKATO        MOCLDY    72  55  56 CALM      29.98S
NEW ULM        MOCLDY    72  52  49 E5        29.98S
ST JAMES       MOCLDY    72  55  56 S3        29.99S
FAIRMONT       PTCLDY    66  43  42 S6        29.98S
GLENCOE        PTCLDY    73  57  56 CALM      29.97S
FARIBAULT      PTCLDY    72  57  60 CALM      29.98F
OWATONNA       PTCLDY    70  55  60 CALM      29.99R
WASECA         MOCLDY    70  59  68 E3        30.00S
ALBERT LEA     PTCLDY    72  54  53 S2        29.99S
$$
MNZ078>079-086>088-094>096-030200-
   Southeast Minnesota

CITY           SKY/WX    TMP DP  RH WIND       PRES   REMARKS
ROCHESTER      PTCLDY    66  54  65 SE5       30.00S
RED WING       PTCLDY    73  57  56 CALM      29.96F
STANTON        PTCLDY    72  59  64 CALM      29.97S
DODGE CENTER   PTCLDY    70  63  78 CALM      29.99S
WINONA         PTCLDY    70  55  60 CALM      29.98S
AUSTIN         PTCLDY    72  57  60 CALM      29.99S
PRESTON        PTCLDY    68  54  61 CALM      30.00S
$$
ABBREVIATIONS USED IN REMARKS
   TC - TEMPERATURES IN CELSIUS
  WCI - WIND CHILL INDEX
   HX - HEAT INDEX
  VSB - VISIBILITY
$$


USA.gov is the U.S. government's official web portal to all federal, state and local government web resources and services.